Fitchburg, MA

5:44 PM EDT on May 22, 2017 (GMT -0400)
Fitchburg Municipal

Weather History for KFIT - August, 2013

Change the Weather History Date:

Saturday, August 31, 2013

  Actual Average (KORH) Record (KORH)
Temperature  
Mean Temperature 76 °F -  
Max Temperature 84 °F 75 °F 93 °F (1953)
Min Temperature 71 °F 55 °F 39 °F (1976)
Cooling Degree Days 12    
Growing Degree Days 26 (Base 50)    
Moisture  
Dew Point 70 °F    
Average Humidity 81    
Maximum Humidity 94    
Minimum Humidity 66    
Precipitation  
Precipitation 0.04 in - - ()
Sea Level Pressure  
Sea Level Pressure 29.82 in    
Wind  
Wind Speed 4 mph (SSW)    
Max Wind Speed 9 mph    
Max Gust Speed -    
Visibility 8 miles    
Events Rain , Thunderstorm    
Averages and records for this station are not official NWS values.
T = Trace of Precipitation, MM = Missing Value Source: NWS Daily Summary

Daily Weather History Graph

Daily Weather History Graph

Search for Another Location

Airport or City:

Trip Planner

Search our weather history database for the weather conditions in past years. The results will help you decide how hot, cold, wet, or windy it might be!

Date:

Astronomy

Aug. 31, 2013 Rise Set
Actual Time 6:11 AM EDT 7:22 PM EDT
Civil Twilight 5:42 AM EDT 7:51 PM EDT
Nautical Twilight 5:07 AM EDT 8:26 PM EDT
Astronomical Twilight 4:30 AM EDT 9:02 PM EDT
Moon 1:33 AM EDT (8/31) 4:22 PM EDT (8/31)
Length of Visible Light 14h 09m
Length of Day
13h 11m
Waning Crescent, 21% of the Moon is Illuminated
Aug 31
Waning Crescent
Sep 5
New
Sep 12
First Quarter
Sep 19
Full
Sep 26
Last Quarter

Hourly Weather History & Observations

Time (EDT) Temp. Heat Index Dew Point Humidity Pressure Visibility Wind Dir Wind Speed Gust Speed Precip Events Conditions
12:52 AM 75.0 °F - 66.0 °F 73% 29.83 in 10.0 mi South 4.6 mph - N/A   Clear
1:52 AM 73.9 °F - 66.0 °F 76% 29.81 in 10.0 mi SSE 5.8 mph - N/A   Clear
2:52 AM 72.0 °F - 66.0 °F 81% 29.81 in 10.0 mi Calm Calm - N/A   Clear
3:52 AM 71.1 °F - 66.0 °F 84% 29.81 in 10.0 mi Calm Calm - N/A   Clear
4:48 AM 71.6 °F - 66.2 °F 83% 29.83 in 8.0 mi NNW 9.2 mph - N/A Thunderstorm Scattered Clouds
4:52 AM 72.0 °F - 68.0 °F 87% 29.82 in 8.0 mi NW 4.6 mph - N/A Thunderstorm Mostly Cloudy
4:59 AM 73.4 °F - 68.0 °F 83% 29.83 in 8.0 mi NNW 8.1 mph - N/A Thunderstorm Mostly Cloudy
5:07 AM 73.4 °F - 68.0 °F 83% 29.83 in 7.0 mi WNW 4.6 mph - 0.00 in Rain , Thunderstorm Light Rain
5:14 AM 73.4 °F - 68.0 °F 83% 29.83 in 10.0 mi WNW 4.6 mph - 0.00 in Rain Light Rain
5:26 AM 73.4 °F - 68.0 °F 83% 29.83 in 9.0 mi WNW 5.8 mph - 0.00 in   Overcast
5:52 AM 73.0 °F - 68.0 °F 84% 29.83 in 8.0 mi Variable 3.5 mph - 0.00 in   Overcast
6:02 AM 71.6 °F - 68.0 °F 88% 29.83 in 4.0 mi NNW 4.6 mph - 0.02 in Rain , Thunderstorm Light Thunderstorms and Rain
6:16 AM 71.6 °F - 69.8 °F 94% 29.83 in 7.0 mi Calm Calm - 0.03 in Rain , Thunderstorm Light Thunderstorms and Rain
6:23 AM 71.6 °F - 69.8 °F 94% 29.83 in 6.0 mi SSW 6.9 mph - 0.03 in   Mostly Cloudy
6:52 AM 73.0 °F - 69.1 °F 87% 29.83 in 6.0 mi Calm Calm - 0.03 in   Scattered Clouds
7:29 AM 73.4 °F - 69.8 °F 88% 29.84 in 5.0 mi Calm Calm - N/A   Overcast
7:52 AM 73.0 °F - 70.0 °F 90% 29.84 in 5.0 mi West 3.5 mph - N/A   Overcast
8:52 AM 73.9 °F - 70.0 °F 87% 29.84 in 5.0 mi ESE 3.5 mph - 0.00 in Rain Light Rain
9:35 AM 75.2 °F - 71.6 °F 89% 29.85 in 5.0 mi Calm Calm - 0.01 in   Mostly Cloudy
9:52 AM 75.0 °F - 70.0 °F 84% 29.85 in 6.0 mi SW 3.5 mph - 0.01 in   Haze
10:18 AM 77.0 °F - 71.6 °F 83% 29.84 in 6.0 mi Calm Calm - N/A   Haze
10:52 AM 78.1 °F - 71.1 °F 79% 29.84 in 7.0 mi South 4.6 mph - N/A   Mostly Cloudy
11:02 AM 78.8 °F - 71.6 °F 78% 29.84 in 7.0 mi South 5.8 mph - N/A   Mostly Cloudy
11:52 AM 79.0 °F - 70.0 °F 74% 29.83 in 8.0 mi SSW 4.6 mph - 0.00 in   Scattered Clouds
12:52 PM 80.1 °F 83.2 °F 70.0 °F 71% 29.82 in 9.0 mi SSW 5.8 mph - N/A   Clear
1:16 PM 80.6 °F 84.6 °F 71.6 °F 74% 29.82 in 9.0 mi SSE 6.9 mph - N/A   Mostly Cloudy
1:52 PM 81.0 °F 84.9 °F 71.1 °F 72% 29.81 in 9.0 mi South 5.8 mph - N/A   Mostly Cloudy
2:21 PM 82.4 °F 87.2 °F 71.6 °F 70% 29.81 in 10.0 mi South 9.2 mph - N/A   Scattered Clouds
2:52 PM 82.9 °F 87.5 °F 71.1 °F 67% 29.81 in 10.0 mi SSW 8.1 mph - N/A   Mostly Cloudy
3:00 PM 82.4 °F 86.3 °F 69.8 °F 66% 29.81 in 9.0 mi WSW 5.8 mph - N/A   Mostly Cloudy
3:18 PM 82.4 °F 87.2 °F 71.6 °F 70% 29.81 in 9.0 mi South 8.1 mph - N/A   Scattered Clouds
3:52 PM 82.0 °F 86.3 °F 71.1 °F 69% 29.80 in 9.0 mi SSW 5.8 mph - N/A   Partly Cloudy
4:52 PM 80.1 °F 83.6 °F 71.1 °F 74% 29.80 in 8.0 mi SSE 5.8 mph - N/A   Clear
5:52 PM 79.0 °F - 71.1 °F 77% 29.80 in 8.0 mi South 5.8 mph - N/A   Clear
6:52 PM 78.1 °F - 70.0 °F 76% 29.79 in 7.0 mi South 6.9 mph - N/A   Clear
7:52 PM 77.0 °F - 71.1 °F 82% 29.81 in 8.0 mi South 6.9 mph - N/A   Partly Cloudy
8:07 PM 77.0 °F - 71.6 °F 83% 29.81 in 8.0 mi SSE 4.6 mph - N/A   Mostly Cloudy
8:52 PM 77.0 °F - 71.1 °F 82% 29.82 in 8.0 mi Calm Calm - N/A   Mostly Cloudy
9:07 PM 75.2 °F - 71.6 °F 89% 29.82 in 8.0 mi South 3.5 mph - N/A   Scattered Clouds
9:52 PM 77.0 °F - 71.1 °F 82% 29.82 in 8.0 mi South 4.6 mph - N/A   Clear
10:52 PM 77.0 °F - 71.1 °F 82% 29.82 in 9.0 mi South 5.8 mph - N/A   Mostly Cloudy
11:52 PM 75.9 °F - 71.1 °F 85% 29.82 in 9.0 mi South 3.5 mph - N/A   Scattered Clouds